EW2169 Weather Reports


Display with metric or nautical units.
time (UTC)temp
F
wind
direction
speed
MPH
gust
MPH
rain 1hr
in
rain 24hr
in
rain mn
in
humidity
%
barometer
mb
20200403083026 51 233 0.0 0.0 0.00 0.00 0.00 82 1019.2
20200403081558 49 43 0.0 0.0 0.00 0.00 0.00 88 1019.1
20200403080032 48 223 0.0 0.0 0.00 0.00 0.00 91 1019.0
20200403073023 46 298 0.0 0.0 0.00 0.00 0.00 94 1018.9
20200403071517 45 300 0.0 0.0 0.00 0.00 0.00 94 1018.9
20200403070000 44 205 0.0 0.0 0.00 0.00 0.00 94 1018.9
20200403063113 44 232 0.0 0.0 0.00 0.00 0.00 93 1018.7
20200403061720 43 202 0.0 0.0 0.00 0.00 0.00 93 1018.6
20200403060227 43 202 0.0 0.0 0.00 0.00 0.00 93 1018.4
20200403053204 43 202 0.0 0.0 0.00 0.00 0.00 93 1018.2
20200403051829 43 175 0.0 0.0 0.00 0.00 0.00 94 1018.1
20200403050233 43 215 0.0 0.0 0.00 0.00 0.00 94 1017.9
20200403043119 43 215 0.0 0.0 0.00 0.00 0.00 94 1017.7
20200403041622 43 215 0.0 0.0 0.00 0.00 0.00 94 1017.6
20200403040330 43 215 0.0 0.0 0.00 0.00 0.00 95 1017.5
20200403033115 42 220 0.0 0.0 0.00 0.00 0.00 94 1017.4
20200403031604 42 219 0.0 0.0 0.00 0.00 0.00 95 1017.4
20200403030131 41 219 0.0 0.0 0.00 0.00 0.00 94 1017.4
20200403023145 41 232 0.0 0.0 0.00 0.00 0.00 93 1017.0
20200403021719 41 232 0.0 0.0 0.00 0.00 0.00 93 1017.1
20200403020049 42 232 0.0 0.0 0.00 0.00 0.00 93 1017.2
20200403013042 42 219 0.0 0.0 0.00 0.00 0.00 92 1017.1
20200403011552 43 219 0.0 0.0 0.00 0.00 0.00 92 1017.0
20200403010113 43 259 0.0 0.0 0.00 0.00 0.00 92 1017.0
20200403003226 43 234 0.0 0.0 0.00 0.00 0.00 91 1017.0
20200403001549 44 244 0.0 0.0 0.00 0.00 0.00 91 1017.1
20200403000041 44 234 0.0 0.0 0.00 0.00 0.00 90 1016.9
20200402233121 45 238 0.0 0.0 0.00 0.00 0.00 89 1016.8
20200402231553 45 238 0.0 0.0 0.00 0.00 0.00 88 1016.8
20200402230049 46 298 1.0 0.0 0.00 0.00 0.00 89 1016.8
20200402223054 45 265 0.0 0.0 0.00 0.00 0.00 89 1016.7
20200402221612 45 269 0.0 0.0 0.00 0.00 0.00 89 1016.7
20200402220207 45 261 0.0 0.0 0.00 0.00 0.00 89 1016.7
20200402213039 45 272 0.0 0.0 0.00 0.00 0.00 88 1016.7
20200402211539 45 271 0.0 0.0 0.00 0.00 0.00 87 1016.7
20200402210054 46 208 0.0 0.0 0.00 0.00 0.00 86 1016.6
20200402203117 47 221 0.0 0.0 0.00 0.00 0.00 84 1016.3
20200402201641 47 237 0.0 0.0 0.00 0.00 0.00 83 1016.4
20200402200119 47 221 0.0 0.0 0.00 0.00 0.00 82 1016.3
20200402193048 49 249 0.0 0.0 0.00 0.00 0.00 78 1016.0
20200402191616 50 280 0.0 0.0 0.00 0.00 0.00 77 1015.8
20200402190047 51 248 1.0 0.0 0.00 0.00 0.00 76 1015.6
20200402183119 52 232 0.0 0.0 0.00 0.00 0.00 75 1015.4
20200402181551 52 280 0.0 0.0 0.00 0.00 0.00 74 1015.3
20200402180038 53 251 0.0 0.0 0.00 0.00 0.00 73 1015.4
20200402173035 53 257 1.0 0.0 0.00 0.00 0.00 70 1015.3
20200402171557 54 268 0.0 0.0 0.00 0.00 0.00 71 1015.3
20200402170045 54 215 0.0 0.0 0.00 0.00 0.00 70 1015.2
20200402163121 55 230 1.0 0.0 0.00 0.00 0.00 69 1015.2
20200402161635 55 255 1.0 0.0 0.00 0.00 0.00 69 1015.2
20200402160137 55 59 0.0 0.0 0.00 0.00 0.00 70 1015.2
20200402153116 55 160 0.0 0.0 0.00 0.00 0.00 74 1015.3
20200402151547 54 171 0.0 0.0 0.00 0.00 0.00 77 1015.5
20200402150056 52 183 1.0 0.0 0.00 0.00 0.00 79 1015.6
20200402143055 52 263 1.0 0.0 0.00 0.00 0.00 77 1016.0
20200402141556 52 216 1.0 0.0 0.00 0.00 0.00 77 1016.1
20200402140042 52 227 2.0 0.0 0.00 0.00 0.00 78 1016.2
20200402133024 51 123 2.0 0.0 0.00 0.00 0.00 78 1016.5
20200402131615 51 184 3.0 0.0 0.00 0.00 0.00 79 1016.6
20200402130105 51 148 4.0 0.0 0.00 0.00 0.00 76 1016.9
20200402123023 51 190 2.0 0.0 0.00 0.00 0.00 77 1017.0
20200402121519 51 311 1.0 0.0 0.00 0.00 0.00 77 1017.0
20200402120054 52 197 1.0 0.0 0.00 0.00 0.00 75 1017.2
20200402113026 51 167 1.0 0.0 0.00 0.00 0.00 75 1017.5
20200402111602 53 170 2.0 0.0 0.00 0.00 0.00 76 1017.4
20200402110013 53 201 1.0 0.0 0.00 0.00 0.00 74 1017.6
20200402103020 51 192 1.0 0.0 0.00 0.00 0.00 78 1017.7
20200402101512 49 140 0.0 0.0 0.00 0.00 0.00 80 1017.9
20200402100020 48 236 0.0 0.0 0.00 0.00 0.00 81 1017.9
20200402094937 47 267 0.0 0.0 0.00 0.00 0.00 83 1018.3
20200402091717 46 211 1.0 0.0 0.00 0.00 0.00 84 1018.3
20200402090123 45 169 0.0 0.0 0.00 0.00 0.00 83 1018.5